Regional Weather Roundup
Issued by NWS

Home | Current Version | Previous Version | Text Only | Print | Product List | Glossary Off
Versions: 1 2 3 4 5 6 7 8 9 10 11 12 13 14 15 16 17 18 19 20 21 22 23 24 25 26 27

000
ASUS45 KTFX 260610
RWRMT
MONTANA REGIONAL WEATHER ROUNDUP
NATIONAL WEATHER SERVICE GREAT FALLS MT
1200 AM MDT TUE JUL 26 2016

NOTE: "FAIR" INDICATES FEW OR NO CLOUDS BELOW 12000 FEET WITH NO
SIGNIFICANT WEATHER AND/OR OBSTRUCTIONS TO VISIBILITY.

MTZ001>007-043-260700-
WEST OF THE DIVIDE

CITY           SKY/WX    TMP DP  RH WIND       PRES   REMARKS
KALISPELL      CLEAR     61  56  83 N7        30.01F
MISSOULA       CLEAR     67  47  48 CALM      30.04S
BUTTE          CLOUDY    56  45  66 SE7       30.20R
MULLAN PASS    CLEAR     65  41  41 NW5       30.22F
ANACONDA         N/A     55  46  71 W6        30.16R
DEER LODGE       N/A     57  50  77 W3        30.17S
EUREKA           N/A     72  54  53 CALM      30.03R
HAMILTON         N/A     64  39  39 CALM      30.06S
LIBBY            N/A     66  50  55 E3        30.01S
RONAN            N/A     62  52  70 CALM      30.07S
$$

MTZ008-052>055-260700-
SOUTHWEST MONTANA

CITY           SKY/WX    TMP DP  RH WIND       PRES   REMARKS
BOZEMAN        PTCLDY    69  47  45 N6        30.12S
DILLON         CLOUDY    63  43  48 E8        30.16R
W YELLOWSTONE  CLOUDY    63  32  31 N7        30.26R
ENNIS          CLEAR     64  37  36 E8        30.21S
THREE FORKS      N/A     70   7   8 W3        30.10S
TWIN BRIDGES     N/A     63  43  48 NW3       30.12R
$$

MTZ009-010-012-014-046-048-049-054-260700-
EAST SLOPES AND CENTRAL MONTANA

CITY           SKY/WX    TMP DP  RH WIND       PRES   REMARKS
CUT BANK       CLEAR     66  52  60 E6        30.09F
GREAT FALLS    MOCLDY    67  48  50 N8        30.09R
MALMSTROM AFB  CLOUDY    73  47  38 NW7       30.09R
HELENA         CLEAR     65  50  58 W9        30.11R
CHOTEAU          N/A     70  52  52 W5        30.16R
$$

MTZ011-013-016-021-045-047-050-051-260700-
NORTH CENTRAL MONTANA

CITY           SKY/WX    TMP DP  RH WIND       PRES   REMARKS
HAVRE          CLEAR     69  59  70 E8        30.04S
LEWISTOWN      LGT RAIN  64  53  67 S22G30    30.20R
N BAR RANCH    MOCLDY    73  45  35 W15G21    30.21R
CHINOOK          N/A     70  61  73 CALM      30.05R
$$

MTZ017>020-022>027-061-062-260700-
NORTHEAST MONTANA

CITY           SKY/WX    TMP DP  RH WIND       PRES   REMARKS
GLASGOW        CLEAR     71  60  68 NE21      30.00R
JORDAN           N/A     71  49  45 SE3       30.01R
WOLF POINT     CLEAR     70  59  68 E6        30.01R
PLENTYWOOD       N/A     68  64  88 NE13      30.04R
POPLAR           N/A     68  57  68 NE8       30.01S
$$

MTZ028>42-056>058-260700-
SOUTHCENTRAL AND SOUTHEAST MONTANA

CITY           SKY/WX    TMP DP  RH WIND       PRES   REMARKS
BAKER          CLEAR     74  56  53 E14       30.01F
BILLINGS       CLOUDY    77  45  32 N21G28    30.05R THUNDER
LIVINGSTON     PTCLDY    68  47  46 CALM      30.17S
MILES CITY     PTCLDY    78  49  35 NE13      29.96F
FORSYTH          N/A     81  48  32 NE7       29.96S
LAUREL           N/A     76  44  31 NW10      30.09R
ROUNDUP          N/A     78  47  33 W7        30.01F
$$

REGIONAL REPORTS...DAKOTAS

CITY           SKY/WX    TMP DP  RH WIND       PRES   REMARKS
WILLISTON      CLEAR     72  59  63 NE3       30.00S
MINOT          CLEAR     68  63  84 NW3       29.98S
DICKINSON      PTCLDY    67  62  84 NE6       30.00R
CROSBY           N/A     63  63 100 N8        30.04R
WATFORD CITY     N/A    N/A N/A N/A MISG        N/A
BISMARCK       CLOUDY    74  70  87 NE12      29.95S
GRAND FORKS    CLEAR     72  65  78 E9        29.92R
FARGO          PTCLDY    74  66  76 S8        29.92S
BUFFALO SD       N/A     77  51  40 NW3       29.95S
RAPID CITY     CLEAR     69  58  67 SE6       30.03S
$$

REGIONAL REPORTS...WYOMING/IDAHO/WASHINGTON

CITY           SKY/WX    TMP DP  RH WIND       PRES   REMARKS
GILLETTE       CLEAR     76  53  44 S9        30.03F
SHERIDAN       PTCLDY    68  45  43 SE5       30.00F
BUFFALO WY     CLOUDY    73  35  25 W8        30.10S
CODY           CLEAR     75  41  29 NW9G16    30.16R
YELLOWSTONE LA   N/A     49  32  52 CALM      30.36S
IDAHO FALLS    CLEAR     67  38  34 SW10      30.06S
SALMON         CLEAR     70  39  32 SE5       30.06R
BOISE          CLEAR     79  38  22 S3        29.91S
SPOKANE        PTCLDY    75  46  35 CALM      29.98R
$$

REGIONAL REPORTS...ALBERTA

CITY           SKY/WX    TMP DP  RH WIND       PRES   REMARKS
EDMONTON       PTCLDY    63  52  67 SE7       30.02F
LETHBRIDGE     CLOUDY    66  59  77 E6        30.06S THUNDER
MEDICINE HAT   MOCLDY    66  59  77 E5        30.06R
WATERTON GATE    N/A     63  54  72 NE6         N/A
MILK RIVER       N/A     64  57  77 N8          N/A
$$

REGIONAL REPORTS...SASKATCHEWAN

CITY           SKY/WX    TMP DP  RH WIND       PRES   REMARKS
SWIFT CURRENT  CLEAR     61  55  82 E7        30.09S
SASKATOON      CLEAR     54  50  87 NW7       30.08S
CYPRESS HILLS    N/A     63  54  72 E7          N/A
VAL MARIE        N/A     64  61  88 NE9         N/A
ROCKGLEN         N/A     64  57  77 NE6         N/A
ASSINIBOIA       N/A     59  55  88 S5          N/A
$$




USA.gov is the U.S. government's official web portal to all federal, state and local government web resources and services.